COSMOS 839 DEB

基本信息
目录编号:
10613
目录名称:
COSMOS 839 DEB
国际标识:
1976-067AM
轨道中心:
EARTH
物体状态:
在轨
发射日期:
1976-07-08 UTC
轨道信息
数据来源: 国际轨道数据
星历时间: 2026-09-04T19:46:03+0800
半长轴: 7788.106km
偏心率: 0.0692984
轨道倾角: 65.798°
近地点辐角: 104.350°
升交点赤经: 258.226°
平近点角: 263.541°
近地点: 870.265km
远地点: 1949.673km
周期: 114.001分钟
每日圈数: 12.631504
详细信息
发射场:
PKMTR
轨道高度:
LEO
数据来源:
AOE Integration Group
参考系:
TEME
时间系统:
UTC
历元类型:
SGP4
2D轨道图
3D轨道图
轨道高度分析图
轨道倾角分析图
轨道综合分析图
查看轨道综合分析图